Regional Weather Roundup
Issued by NWS

Home | Current Version | Previous Version | Text Only | Print | Product List | Glossary Off
Versions: 1 2 3 4 5 6 7 8 9 10 11 12 13 14 15 16 17 18 19 20 21 22 23 24 25 26 27 28 29 30 31 32 33 34 35 36 37 38 39 40 41 42 43 44 45 46 47 48 49 50

000
ASUS43 KIND 210109
RWRIN

WEATHER ROUNDUP FOR INDIANA
NATIONAL WEATHER SERVICE INDIANAPOLIS IN
800 PM EST FRI JAN 20 2017

NOTE: "FAIR" INDICATES FEW OR NO CLOUDS BELOW 12,000 FEET WITH NO
SIGNIFICANT WEATHER AND/OR OBSTRUCTIONS TO VISIBILITY.

* - STATION DOES NOT REPORT WEATHER SUCH AS PRECIPITATION OR FOG.

+ - STATION NOT QUALITY CONTROLLED BY THE NATIONAL WEATHER SERVICE.
    USE DATA WITH CAUTION...ESPECIALLY DEWPOINT AND RELATIVE
    HUMIDITY OBSERVATIONS.

INZ001>003-010>013-019-020-210200-
NORTHWEST INDIANA

CITY           SKY/WX    TMP DP  RH WIND       PRES   REMARKS
GARY /AIRPORT/ CLOUDY    46  45  93 CALM      29.67S FOG
KNOX *+        CLOUDY    45  41  87 SE6       29.69F
LA PORTE +     FOG       44  44 100 SE6       29.69F VSB 3/4
MICHIGAN CITY+ CLOUDY    45  45 100 S7        29.69S
MONTICELLO +   CLOUDY    47  46  95 E5        29.67F
RENSSELAER +   CLOUDY    46  46 100 SE6       29.68S FOG
VALPARAISO     CLOUDY    47  47 100 SE6       29.68S FOG

$$

LMZ046-743>745-210200-
SOUTHERN LAKE MICHIGAN

STATION/POSITION TIME  TEMP    WIND        PRES    WAVE
                       AIR SEA DIR/SP/G            HT
                 (UTC) (F)     (DEG/KT/KT) (MB)    (FT)
BURNS HARBOR     0040   47     160/  9/ 15 1005.4F
MICHIGAN CITY    0040   45     140/  9/ 10   N/A

$$

INZ004-005-014>016-021>024-210200-
NORTH CENTRAL INDIANA

CITY           SKY/WX    TMP DP  RH WIND       PRES   REMARKS
ELKHART        CLOUDY    45  45 100 S5        29.71R FOG
GOSHEN         CLOUDY    45  43  93 S8        29.71S FOG
LOGANSPORT +   CLOUDY    45  45 100 SE5       29.70S
PERU/GRISSOM   CLOUDY    48  48 100 SE5       29.68F
ROCHESTER +    MOCLDY    46  46 100 E3        29.70F FOG
SOUTH BEND     FOG       44  44 100 S6        29.70S VSB 1
WARSAW +       CLOUDY    45  43  93 CALM      29.71F FOG

$$

INZ006>009-017-018-025>027-210200-
NORTHEAST INDIANA

CITY           SKY/WX    TMP DP  RH WIND       PRES   REMARKS
ANGOLA *+      CLOUDY    45  43  93 S3        29.72S VSB 1/2
AUBURN +       CLOUDY    46  45  93 S3        29.73S FOG
FORT WAYNE     CLOUDY    48  45  89 SE3       29.73S
HUNTINGTON +   CLOUDY    47  46  95 CALM      29.72F
KENDALLVILLE + CLOUDY    46  46 100 SW6       29.72S

$$

INZ028-029-035-036-043>045-051>053-210200-
WEST CENTRAL INDIANA

CITY           SKY/WX    TMP DP  RH WIND       PRES   REMARKS
CRAWFORDSVL +  CLOUDY    48  48 100 SE8       29.68S
GREENCASTLE +  CLOUDY    50  48  93 SE6       29.68F
LAFAYETTE      CLOUDY    49  47  93 E5        29.67S
TERRE HAUTE    CLOUDY    53  49  86 SE7       29.67S

$$

INZ030>032-037>040-046>048-054>057-064-065-210200-
CENTRAL INDIANA

CITY           SKY/WX    TMP DP  RH WIND       PRES   REMARKS
CP ATTERBURY + CLOUDY    50  46  87 SE3       29.72R
COLUMBUS       MOCLDY    50  50 100 SE6       29.72S
FISHERS *+     CLOUDY    50  48  93 SE3       29.70
FRANKFORT +    CLOUDY    51  49  90 SE7       29.70S
GREENWOOD *+   CLOUDY    53  50  87 SE3       29.72R
INDIANAPOLIS   CLOUDY    52  47  83 SE8       29.69S
-EAGLE CREEK   CLOUDY    53  47  79 SE6       29.69S
KOKOMO +       CLOUDY    48  47  96 E7        29.71S
MARION +       CLOUDY    48  46  93 CALM      29.72S
MT COMFORT *+  CLOUDY    50  46  87 SE3       29.71S
SHELBYVILLE    CLOUDY    52  47  83 SE6       29.71S
ZIONSVILLE +   CLOUDY    50  46  88 SE5       29.70S

$$

INZ033-034-041-042-049-050-058-059-210200-
EAST CENTRAL INDIANA

CITY           SKY/WX    TMP DP  RH WIND       PRES   REMARKS
MUNCIE         CLOUDY    53  47  79 S5        29.72S

$$

INZ060-061-067>069-081>083-085>088-210200-
SOUTHWEST INDIANA

CITY           SKY/WX    TMP DP  RH WIND       PRES   REMARKS
EVANSVILLE     CLEAR     58  51  78 S6        29.69S
HUNTINGBURG *+ MOCLDY    55  51  86 S5        29.71R
WASHINGTON +   PTCLDY    51  49  93 S6        29.69R

$$

INZ062-063-066-070>080-084-089>092-210200-
SOUTH CENTRAL AND SOUTHEAST INDIANA

CITY           SKY/WX    TMP DP  RH WIND       PRES   REMARKS
BLOOMINGTON    CLOUDY    54  48  80 SE6       29.69S
MADISON *+     MOCLDY    50  46  87 E3        29.75F
NORTH VERNON + PTCLDY    54  54 100 SE3       29.73S
SEYMOUR +      CLOUDY    54  48  82 SE6       29.71S

$$




USA.gov is the U.S. government's official web portal to all federal, state and local government web resources and services.